Regional Weather Roundup
Issued by NWS Kansas City/Pleasant Hill, MO

Home | Current Version | Previous Version | Text Only | Print | Product List | Glossary On
Versions: 1 2 3 4 5 6 7 8 9 10 11 12 13 14 15 16 17 18 19 20 21 22 23 24 25 26 27 28 29 30 31 32 33 34 35 36 37 38 39 40 41 42 43 44 45 46 47 48 49 50
000
ASUS43 KEAX 301104
RWREAX

WEATHER ROUNDUP FOR EASTERN KANSAS AND NORTHWEST MISSOURI
NATIONAL WEATHER SERVICE KANSAS CITY/PLEASANT HILL MO
500 AM CST FRI JAN 30 2015

KSZ040-057-103>105-MOZ028-029-037-043-301200-
...KANSAS CITY METROPOLITAN AREA...

CITY           SKY/WX    TMP DP  RH WIND       PRES   REMARKS
K.C. INTL      CLEAR     20  18  92 N6        30.53F WCI  12
K.C. DOWNTOWN  CLEAR     26  22  84 N3        30.54F
LEES SUMMIT    CLEAR     25  21  85 N5        30.53S WCI  19
OLATHE - IXD   CLEAR     19  17  92 N6        30.54S WCI  11
OLATHE - OJC   FAIR      23  20  88 NW5       30.52S WCI  17
LAWRENCE       CLEAR     14  11  87 NW6       30.55S WCI   5

$$

MOZ001>008-011>017-020>025-030>033-038>040-044>046-053-054-301200-
...NORTHERN AND CENTRAL MISSOURI...

CITY           SKY/WX    TMP DP  RH WIND       PRES   REMARKS
ST. JOSEPH     FOG       14  11  87 N6        30.56S VSB 1/2 WCI   5
MOSBY          SUNNY     19  18  93 CALM      30.55S
WARRENSBURG    CLEAR     25  21  86 NW5       30.54S WCI  19
WHITEMAN AFB   CLEAR     23  19  85 N5        30.53R WCI  17
CLINTON        CLEAR     25  23  93 N6        30.53F WCI  18
SEDALIA        CLEAR     25  21  85 NW5       30.53R WCI  19
WARSAW         NOT AVBL
MARSHALL       CLEAR     28  23  80 N6        30.55R WCI  22
CHILLICOTHE      N/A     24  18  77 N3        30.55S
MOBERLY        CLEAR     25  19  80 N5        30.53R WCI  19
KIRKSVILLE     CLEAR     21  18  88 N9        30.52S WCI  11

$$

MOZ041-047>049-056>058-063>065-088>090-097-301200-
...EASTERN AND SOUTHERN MISSOURI...

CITY           SKY/WX    TMP DP  RH WIND       PRES   REMARKS
ST. LOUIS INTL MOCLDY    30  19  63 N13       30.50R WCI  20
SPIRIT OF STL  CLOUDY    30  20  66 N8        30.50R WCI  22
COLUMBIA       CLEAR     24  20  84 N8        30.51R WCI  15
JEFFERSON CITY CLEAR     25  20  81 CALM      30.54R
MEXICO         PTCLDY    25  25 100 NW5       30.51R WCI  19
HANNIBAL       MOCLDY    27  18  69 N6        30.52R WCI  20
ROLLA          CLEAR     25  20  81 NW8       30.47R WCI  16
LEBANON        CLEAR     27  23  86 N6        30.47F WCI  20
OSAGE BEACH    CLEAR     25  19  80 N5        30.51S WCI  19
SPRINGFIELD    CLEAR     23  19  85 N6        30.47F WCI  16
NEVADA         CLEAR     25  23  93 CALM      30.54R
JOPLIN         CLEAR     24  21  88 CALM      30.52R
WEST PLAINS    CLEAR     27  21  78 NW5       30.46R WCI  22

$$

IAZ060-094-KSZ022-034>040-054-083-096-NEZ052-066-093-301200-
...KANSAS...SOUTHEAST NEBRASKA AND IOWA...

CITY           SKY/WX    TMP DP  RH WIND       PRES   REMARKS
TOPEKA         PTCLDY    18  15  88 CALM      30.55F
MANHATTAN      PTCLDY    17  14  88 CALM      30.53F
EMPORIA        CLEAR     20  19  96 CALM      30.51F
CHANUTE        PTCLDY    22  20  92 N5        30.52F WCI  16
WICHITA        MOCLDY    21  16  81 W3        30.52R
OMAHA          PTCLDY    19  17  92 CALM      30.54F
LINCOLN        CLEAR     13  10  88 N5        30.54S WCI   5
FALLS CITY     PTCLDY    17  14  88 W3        30.54F
LAMONI         PTCLDY    18  15  88 N3        30.53R
DES MOINES     CLEAR     19  13  77 N7        30.55R WCI  10

$$



USA.gov is the U.S. government's official web portal to all federal, state and local government web resources and services.